Вернуться в каталог

HJS-9D

АктивенНаукаVLEO
NORAD 68834·PAYLOAD·🇨🇳 China

Запущен Apr 24, 2026 с Xichang Satellite Launch Center

Loading…

Ближайшие Пролёты (ближайшие 24 часа)

TLE

СвежийSource: Space-Track

Эпоха: Sep 14, 2026, 11:26 UTC

1 68834U 26091D   26257.47666423  .00006624  00000-0  32360-3 0  9992
2 68834  55.0031 351.4945 0012939 323.0570  36.9557 15.19377449 21772

Отслеживайте HJS-9D в реальном времени с AllMySat

Download on the App Store